Find Starlink 31990

NORAD ID: 60024 Int'l Des: 2024-111 Owner: SPXS Country: US Constellation: starlink operational
LEOCIRCULAR

Live Position

Loading 3D Globe...

About Starlink 31990

Description loading...

Upcoming Passes

Passes for default location (London). Set your location on the main map for personalized predictions.

Altitude History

Loading altitude history...

Two-Line Element Set

1 60024U 24111J 26126.49113661 -.00002117 00000-0 -59399-4 0 9991
2 60024 53.1600 167.1146 0001601 26.8530 333.2553 15.30175688107889
Epoch: May 6, 2026 • Age: 11 hours

Current Status

Altitude 479.3 km
Velocity 7.63 km/s
Sub-Earth Point 46.01°N, 5.07°E
Launch Date Jun 8, 2024
Age 1.9 years
Type internet

Technical Details

Classification Payload
Mass 730.00 kg
Dry Mass 700.00 kg
Total Mass 730.00 kg
Length 0.30 m
Diameter 4.10 m
Span 29.00 m
Shape Box + pan
Manufacturer SPXS
Bus Type Starlink V2M
Phase Status In Orbit
Owner/State SPXS/US

Most Searched